GW6354 Weather Reports


Display with metric or nautical units.
time (UTC)temp
F
wind
direction
speed
MPH
gust
MPH
rain 1hr
in
rain 24hr
in
rain mn
in
humidity
%
barometer
mb
20260504201522 58 249 1.0 1.0 0.00 0.07 0.07 68 1016.9
20260504200524 60 294 2.0 2.0 0.00 0.07 0.07 65 1016.8
20260504195516 60 272 1.0 1.0 0.00 0.07 0.07 64 1016.7
20260504194519 60 208 4.0 4.0 0.00 0.07 0.07 64 1016.7
20260504193521 61 191 3.0 4.0 0.00 0.07 0.07 60 1016.7
20260504192523 61 161 3.0 3.0 0.00 0.07 0.07 60 1016.6
20260504191516 61 179 2.0 2.0 0.00 0.07 0.07 60 1016.5
20260504190538 64 303 3.0 3.0 0.00 0.07 0.07 54 1016.4
20260504185521 64 308 4.0 5.0 0.01 0.07 0.07 55 1016.3
20260504184524 64 271 5.0 5.0 0.01 0.07 0.07 53 1016.3
20260504183535 63 209 5.0 5.0 0.01 0.07 0.07 54 1016.3
20260504182517 66 204 5.0 6.0 0.01 0.07 0.07 50 1016.1
20260504181520 66 212 6.0 6.0 0.01 0.07 0.07 50 1016.1
20260504180522 66 210 6.0 6.0 0.01 0.07 0.07 49 1016.0
20260504175515 67 209 5.0 6.0 0.00 0.06 0.06 46 1015.9
20260504174517 68 209 6.0 8.0 0.00 0.06 0.06 48 1015.9
20260504173520 68 221 4.0 4.0 0.00 0.06 0.06 51 1015.9
20260504172522 69 212 2.0 3.0 0.00 0.06 0.06 50 1015.9
20260504171544 68 225 2.0 2.0 0.00 0.06 0.06 49 1015.9
20260504170517 68 215 4.0 5.0 0.01 0.06 0.06 49 1016.0
20260504150556 71 200 11.0 15.0 0.00 0.04 0.03 42 1016.2
20260504140521 72 202 12.0 15.0 0.00 0.05 0.03 39 1016.5
20260504130516 74 230 13.0 16.0 0.01 0.05 0.03 38 1016.9
20260504110522 74 245 8.0 12.0 0.00 0.05 0.02 31 1017.4
20260504100602 74 212 9.0 11.0 0.00 0.05 0.02 29 1017.8
20260504081521 70 126 3.0 4.0 0.01 0.05 0.02 43 1017.9
20260504080523 69 159 2.0 4.0 0.01 0.05 0.02 43 1017.9
20260504050519 47 149 3.0 3.0 0.00 0.05 0.01 84 1017.4
20260504045521 46 135 3.0 3.0 0.01 0.05 0.01 84 1017.2
20260504044524 46 125 3.0 3.0 0.01 0.05 0.01 84 1017.2
20260504043517 45 123 5.0 5.0 0.01 0.05 0.01 86 1017.1
20260504042520 45 137 5.0 5.0 0.01 0.05 0.01 87 1017.1
20260504041522 45 139 5.0 5.0 0.01 0.05 0.01 86 1017.0
20260504040515 45 132 4.0 5.0 0.01 0.05 0.01 86 1017.1
20260504035517 45 118 4.0 4.0 0.00 0.05 0.00 85 1017.1
20260504034520 46 133 4.0 5.0 0.00 0.05 0.00 84 1017.1
20260504033523 46 135 3.0 3.0 0.00 0.05 0.00 84 1017.1
20260504032515 46 125 3.0 3.0 0.00 0.05 0.00 84 1017.1
20260504031518 46 102 2.0 3.0 0.00 0.05 0.00 84 1017.1
20260504030521 46 130 3.0 4.0 0.00 0.05 0.00 82 1017.1
20260504025543 47 136 3.0 3.0 0.00 0.05 0.00 82 1017.1
20260504024516 47 113 3.0 4.0 0.00 0.05 0.00 82 1017.3
20260504023519 47 108 3.0 4.0 0.00 0.05 0.00 81 1017.3
20260504022521 47 122 3.0 4.0 0.00 0.05 0.00 81 1017.4
20260504021544 47 123 4.0 5.0 0.00 0.05 0.00 79 1017.4
20260504020557 48 141 5.0 6.0 0.00 0.05 0.00 80 1017.4
20260504015519 48 137 4.0 4.0 0.00 0.05 0.00 80 1017.4
20260504014522 48 88 3.0 3.0 0.00 0.05 0.00 79 1017.4
20260504013525 48 117 3.0 3.0 0.00 0.05 0.00 79 1017.4
20260504012517 47 97 1.0 2.0 0.00 0.05 0.00 80 1017.5
20260504011520 47 125 2.0 2.0 0.00 0.05 0.00 80 1017.5
20260504010523 47 137 3.0 3.0 0.00 0.05 0.00 80 1017.4
20260504005515 48 141 5.0 6.0 0.00 0.05 0.00 79 1017.4
20260504004518 48 107 3.0 4.0 0.00 0.05 0.00 79 1017.4
20260504003521 49 137 2.0 3.0 0.00 0.05 0.00 76 1017.5
20260504002523 49 55 2.0 2.0 0.00 0.05 0.00 78 1017.5
20260504001516 48 102 1.0 2.0 0.00 0.05 0.00 80 1017.5
20260504000519 48 123 4.0 4.0 0.00 0.05 0.00 79 1017.5
20260503235521 49 127 5.0 6.0 0.00 0.05 0.00 78 1017.5
20260503234605 49 133 5.0 5.0 0.00 0.05 0.00 76 1017.5
20260503233517 50 137 5.0 5.0 0.00 0.05 0.00 75 1017.6
20260503232519 50 149 3.0 3.0 0.00 0.05 0.00 75 1017.7
20260503231522 50 146 2.0 2.0 0.00 0.05 0.00 77 1017.6
20260503230515 50 109 3.0 3.0 0.00 0.05 0.00 74 1017.5
20260503225518 50 118 3.0 3.0 0.00 0.05 0.00 75 1017.5
20260503224521 50 122 3.0 4.0 0.00 0.05 0.00 74 1017.5
20260503223523 50 145 3.0 3.0 0.00 0.05 0.00 75 1017.5
20260503222535 50 166 2.0 3.0 0.00 0.05 0.00 76 1017.5
20260503221518 51 136 3.0 3.0 0.00 0.05 0.00 71 1017.4
20260503220521 52 95 4.0 5.0 0.00 0.05 0.00 70 1017.4
20260503215523 52 79 3.0 3.0 0.00 0.05 0.05 69 1017.3
20260503214516 52 96 2.0 3.0 0.00 0.05 0.05 70 1017.3
20260503213519 51 142 1.0 1.0 0.00 0.05 0.05 73 1017.4
20260503212521 52 117 1.0 3.0 0.00 0.05 0.05 71 1017.3
20260503211543 53 161 4.0 4.0 0.00 0.05 0.05 66 1017.3
20260503210515 55 133 3.0 3.0 0.00 0.05 0.05 64 1017.3
20260503205518 54 48 1.0 2.0 0.00 0.05 0.05 67 1017.1
20260503204521 53 122 2.0 2.0 0.00 0.05 0.05 68 1017.1
20260503203524 54 152 1.0 2.0 0.00 0.05 0.05 66 1017.1
20260503202515 54 144 2.0 3.0 0.00 0.05 0.05 65 1017.0